Richmond, VA

7:37 PM EDT on March 24, 2017 (GMT -0400)
Richmond International

Weather History for KRIC - October, 2013

Change the Weather History Date:

Monday, October 28, 2013

  Actual Average Record
Temperature  
Mean Temperature 55 °F 56 °F  
Max Temperature 69 °F 68 °F 87 °F (1919)
Min Temperature 40 °F 44 °F 25 °F (1976)
Degree Days  
Heating Degree Days 10 9  
Month to date heating degree days 127 174  
Since 1 July heating degree days 140 203  
Cooling Degree Days 0 0  
Month to date cooling degree days 71 40  
Year to date cooling degree days 1670 1544  
Growing Degree Days 4 (Base 50)    
Moisture  
Dew Point 42 °F    
Average Humidity 63    
Maximum Humidity 86    
Minimum Humidity 39    
Precipitation  
Precipitation 0.00 in 0.10 in 1.82 in (1949)
Month to date precipitation 4.24 2.67  
Year to date precipitation 44.50 36.79  
Snow  
Snow 0.00 in 0.00 in 0.00 in (2002)
Month to date snowfall 0.0 0.0  
Since 1 July snowfall 0.0 0.0  
Snow Depth 0.00 in    
Sea Level Pressure  
Sea Level Pressure 30.22 in    
Wind  
Wind Speed 1 mph (NW)    
Max Wind Speed 8 mph    
Max Gust Speed 10 mph    
Visibility 9 miles    
Events      
T = Trace of Precipitation, MM = Missing Value Source: NWS Daily Summary

Daily Weather History Graph

Daily Weather History Graph

Search for Another Location

Airport or City:

Trip Planner

Search our weather history database for the weather conditions in past years. The results will help you decide how hot, cold, wet, or windy it might be!

Date:

Astronomy

Oct. 28, 2013 Rise Set
Actual Time 7:30 AM EDT 6:15 PM EDT
Civil Twilight 7:03 AM EDT 6:42 PM EDT
Nautical Twilight 6:32 AM EDT 7:12 PM EDT
Astronomical Twilight 6:02 AM EDT 7:43 PM EDT
Moon 1:28 AM EDT (10/28) 2:49 PM EDT (10/28)
Length of Visible Light 11h 38m
Length of Day
10h 44m
Waning Crescent, 34% of the Moon is Illuminated
Oct 28
Waning Crescent
Nov 3
New
Nov 10
First Quarter
Nov 17
Full
Nov 25
Last Quarter

Hourly Weather History & Observations

Time (EDT) Temp. Dew Point Humidity Pressure Visibility Wind Dir Wind Speed Gust Speed Precip Events Conditions
12:54 AM 46.0 °F 39.9 °F 79% 30.15 in 10.0 mi Calm Calm - N/A   Clear
1:54 AM 44.1 °F 39.0 °F 82% 30.15 in 10.0 mi Calm Calm - N/A   Clear
2:54 AM 43.0 °F 37.9 °F 82% 30.15 in 10.0 mi Calm Calm - N/A   Clear
3:54 AM 42.1 °F 37.0 °F 82% 30.16 in 8.0 mi Calm Calm - N/A   Clear
4:54 AM 42.1 °F 37.9 °F 85% 30.17 in 8.0 mi Calm Calm - N/A   Clear
5:54 AM 41.0 °F 37.0 °F 86% 30.18 in 7.0 mi Calm Calm - N/A   Clear
6:54 AM 41.0 °F 37.0 °F 86% 30.20 in 7.0 mi Calm Calm - N/A   Scattered Clouds
7:54 AM 41.0 °F 37.0 °F 86% 30.22 in 5.0 mi Calm Calm - N/A   Mostly Cloudy
8:54 AM 46.9 °F 42.1 °F 83% 30.24 in 7.0 mi Calm Calm - N/A   Mostly Cloudy
9:54 AM 52.0 °F 45.0 °F 77% 30.25 in 8.0 mi Calm Calm - N/A   Overcast
10:54 AM 59.0 °F 43.0 °F 55% 30.25 in 10.0 mi Calm Calm - N/A   Overcast
11:54 AM 64.0 °F 44.1 °F 48% 30.25 in 10.0 mi North 3.5 mph - N/A   Overcast
12:54 PM 66.0 °F 44.1 °F 45% 30.24 in 10.0 mi WNW 5.8 mph - N/A   Overcast
1:54 PM 66.9 °F 44.1 °F 44% 30.22 in 10.0 mi NW 5.8 mph - N/A   Overcast
2:54 PM 68.0 °F 44.1 °F 42% 30.21 in 10.0 mi NNW 3.5 mph - N/A   Overcast
3:54 PM 68.0 °F 44.1 °F 42% 30.20 in 10.0 mi Calm Calm - N/A   Mostly Cloudy
4:54 PM 68.0 °F 43.0 °F 40% 30.22 in 10.0 mi Calm Calm - N/A   Mostly Cloudy
5:54 PM 66.9 °F 42.1 °F 40% 30.23 in 10.0 mi WNW 3.5 mph - N/A   Mostly Cloudy
6:54 PM 57.9 °F 46.0 °F 65% 30.24 in 10.0 mi Calm Calm - N/A   Mostly Cloudy
7:54 PM 55.9 °F 46.0 °F 69% 30.26 in 10.0 mi Calm Calm - N/A   Mostly Cloudy
8:54 PM 53.1 °F 46.0 °F 77% 30.26 in 10.0 mi Calm Calm - N/A   Mostly Cloudy
9:54 PM 52.0 °F 46.0 °F 80% 30.27 in 10.0 mi Calm Calm - N/A   Mostly Cloudy
10:54 PM 55.0 °F 46.0 °F 72% 30.28 in 10.0 mi Calm Calm - N/A   Mostly Cloudy
11:54 PM 53.1 °F 46.0 °F 77% 30.28 in 10.0 mi Calm Calm - N/A   Overcast